Погода в Астаре

Погода в Астаре : погода сейчас, прогноз погоды и архив. Всё, что Вы хотите узнать о погоде в Астаре!

Поиск расширенной информации на нашем сайте:

Другие новости

Новости СМИ2

Главная страница сайта

Новости сайта

02.10.2013

Напоминаем, что на нашем новом сайте вы можете получить высокодетализированные прогнозы погоды по пунктам России, СНГ и мира (включающие важные для авиации метеовеличины, такие как направление и скорость ветра, видимость, явления погоды, количество и форма облачности, нижняя и верхняя граница облачности), а также ознакомиться с разнообразными материалами по авиационной метеорологии и подборкой полезных ссылок на эту тему.

Сайт Метеоцентр.Азия посвящён разработке технологий оптимизации авиаметеорологического обслуживания, включая проектирование и перспективное создание нескольких автоматизированных авиаметеорологических систем:
- система выпуска высокодетальных прогностических карт явлений погоды для нижнего воздушного пространства по России и ближнему зарубежью;
- система верификации прогнозов TAF (выпускаемых синоптиками официальных АМСГ РФ и ближнего зарубежья) и AUTOTAF (выпускаемых сайтом Метеоцентр.Азия) - выявление ошибок, онлайн-сопоставление с фактической погодой METAR, автоматическое внесение коррективов в прогнозы при резком отклонении фактической погоды от прогноза, подсчёт оправдываемости прогнозов по элементам и в целом;
- система обработки, анализа и отображения авиаметеорологической информации для применения провайдерами метеорологической информации.

Рекомендуем: Заправка картриджей Молодежная для Samsung.

Погода в Астаре - сегодня

Время (UTC), дата Ветер
(°,м/с) 
Видим.   Явления Облачность Т
(°С)
Тd
(°С)
f(%) Тe
(°С)
Pmin
(гПа)
dP
(гПа)
Po
(мм)
O2
(г/м3)
Тmin Tmax R s Состояние
почвы
06 24.06.17 110 (В) 20000 м    1/1 600 м 
[Cu hum]
+24.9 +16.1 58 +35  1014.9  -0.6  763  278           
09 24.06.17 170 (Ю) 20000 м    1/1 600 м 
[Cu hum]
+26.4 +19.7 67 +44  1013.7  -1.2  762  275           
12 24.06.17 170 (Ю) 20000 м    1/1 600 м 
[Cu hum]
+26.7 +19.8 66 +44  1011.8  -1.9  761  275           
15 24.06.17 170 (Ю) 20000 м    1/1 600 м 
[Cu hum]
+25.8 +19.3 67 +42  1010.9  -0.9  760  275           
18 24.06.17 210 (ЮЗ) 4000 м    ясно 
+24.1 +19.3 75 +41  1011.2  0.3  760  277    +27.1       
21 24.06.17 210 (ЮЗ) 4000 м    ясно 
+23.3 +19.7 80 +41  1010.1  -1.1  759  277           
00 25.06.17 290 (З) 4000 м    ясно 
+19.8 +18 89 +35  1009.8  -0.2  759  281           
03 25.06.17 290 (З) 20000 м    3/3 600 м 
[Cu hum]
+20.7 +18.5 87 +36  1010.6  0.8  760  280           
06 25.06.17 160 (Ю) 20000 м    1/1 600 м 
[Cu hum]
+26.1 +21.3 75 +47  1011  0.3  760  274           
09 25.06.17 150 (ЮВ) 20000 м    ясно 
+27.3 +22.4 75 +51  1011.2  0.2  760  273           
12 25.06.17 170 (Ю) 20000 м    1/1 600 м 
[Cu hum]
+27.6 +21.3 69 +49  1010.5  -0.7  760  273           
15 25.06.17 170 (Ю) 20000 м    ясно 
+26.6 +22.5 78 +51  1010.5  760  273           
21 25.06.17 300 (СЗ) 4000 м    4/4 600 м 
[Cu hum]
+22.1 +19.1 83 +38  1014.8  2.6  763  280           
00 26.06.17 320 (СЗ) 4000 м    8/8 600 м 
[Sc]
+22.6 +20 85 +41  1015.9  1.1  764  279           
03 26.06.17 040 (СВ) 20000 м    8/8 600 м 
[Sc]
+24.4 +19.5 74 +41  1017.7  1.8  765  278           
06 26.06.17 050 (СВ) 20000 м    6/6 600 м средняя 
[Cu hum|Ac trans]
+26.8 +20.9 70 +47  1018.5  0.8  766  276           
09 26.06.17 060 (СВ) 20000 м    3/3 600 м 
[Cu hum]
+27.9 +21 66 +48  1017.9  -0.6  765  275           
12 26.06.17 070 (В) 20000 м    1/1 600 м 
[Cu hum]
+27.1 +20.3 66 +46  1016.9  -1  765  275           
15 26.06.17 100 (В) 20000 м    1/1 600 м 
[Cu hum]
+25.5 +20.1 72 +44  1016.9  765  277           
18 26.06.17 290 (З) 4000 м    ясно 
+23.2 +20.3 84 +42  1017.7  0.8  765  279    +28.6       
21 26.06.17 290 (З) 4000 м    ясно 
+21 +18.4 85 +36  1017  -0.6  765  282           
00 27.06.17 300 (СЗ) 4000 м    ясно 
+19.6 +16.8 84 +32  1016  -1  764  284           
03 27.06.17 290 (З) 20000 м    ясно 
+20.6 +17.5 82 +33  1016.1  0.1  764  282           
06 27.06.17 130 (ЮВ) 20000 м    1/1 600 м 
[Cu hum]
+24.7 +21 80 +45  1015.9  -0.3  764  277           
09 27.06.17 140 (ЮВ) 20000 м    1/1 600 м 
[Cu hum]
+26.6 +21.1 72 +47  1015  -0.9  763  275           
Время (UTC), дата Ветер
(°,м/с) 
Видим.   Явления Облачность Т
(°С)
Тd
(°С)
f(%) Тe
(°С)
Pmin
(гПа)
dP
(гПа)
Po
(мм)
O2
(г/м3)
Тmin Tmax R s Состояние
почвы

Для получения пояснительной информации подведите курсор к названию столбца.

ПОГОДА в Астаре - архив

Всё, что Вы хотите узнать о погоде в Астаре - удобно и подробно!

Выберите нужную дату (начиная с 1 января 2015* года) и нажмите кнопку "Найти".
Будут отображены архивные сводки погоды по пункту Астара, начиная с указанной даты.


Отображать данные в формате CSV (для использования в таблицах Excel)


Внимание! Наш архив погоды предназначен исключительно для личного некоммерческого использования в познавательных целях. Если Вам необходимы официальные справки о состоянии погоды (для производственных, юридических, коммерческих и т.п. целей), обращайтесь в органы Росгидромета.

*Примечание: данная дата относится к архиву по метеостанциям СССР (Россия, СНГ, Балтия).
Архив по метеостанциям Зарубежной Европы и Азии (кроме Китая) хранится 10 дней, по другим регионам земного шара (Китай, Африка, Америка, Австралия, Океания) - 1 день.

Астара - район местоположения метеостанции


Название, широта, долгота, высота метеостанции:
Астара 38.4°ш. 48.9°д. -22 м над ур. моря [Азербайджан]

Дополнительная информация

В oтличие oт бoльшинства пoгoдных сайтoв мы публикуем пoдрoбную метеoинфoрмацию в детальнoм прoфессиoнальнoм фoрмате.

Характеристики температуры и влажнoсти вoздуха измеряются на высoте 2 м в тени вдали oт зданий и деревьев.
Скoрoсть ветра измеряется на высoте 10 м (на урoвне рoста челoвека скoрoсть ветра ниже в 1.5-2 раза). Если метеoстанция нахoдится в гoрoде или в лесу, тo скoрoсть ветра занижена на 2-4 м/с пo сравнению с oткрытым местoм. Скoрoсть ветра над акватoриями крупных рек и oзёр, а также на вершинах хoлмoв на 2-5 м/с выше, чем в oбычных услoвиях.
Атмoсфернoе давление в разных тoчках местнoсти мoжет значительнo oтличаться oт давления на метеoстанции, в зависимoсти oт услoвий рельефа (при пoдъёме на 10 м давление пoнижается примернo на 1 мм рт.ст.).